Temperature
21 22 21 21 21 21 21 21 21 21 20 20 20 20 20 20 20 20 20 19 19 19 19 19 19 19 19 19 19 18 18 18 18 18 18 18 18 18 18 17 17 17 17
23 22 21 21 21 21 21 21 21 20 20 20 20 20 20 20 20 20 20 19 19 19 19 19 19 19 19 19 19 19 18 18 18 18 18 18 18 18 18 17 18 17 17
23 22 21 21 21 21 21 21 20 20 20 20 20 20 20 20 20 20 20 20 20 20 19 19 19 19 19 19 19 19 19 18 18 18 18 18 18 18 17 17 17 17 17
23 22 22 21 21 21 21 21 20 20 20 20 20 20 20 20 20 20 20 20 20 20 20 20 20 20 20 19 19 19 19 18 18 18 18 18 18 18 18 18 18 17 17
23 22 22 21 21 21 21 21 20 20 20 20 20 20 20 19 19 20 20 20 20 19 20 20 20 20 20 20 19 19 19 18 18 18 18 18 18 18 18 18 18 18 17
23 22 22 21 21 21 21 21 21 20 20 20 20 20 20 20 19 19 19 20 20 19 20 20 20 20 20 20 20 19 19 18 18 18 18 18 18 18 18 18 18 18 18
22 22 22 22 21 21 21 21 21 21 20 20 20 20 20 20 20 19 19 19 19 20 20 20 20 20 20 20 20 19 19 18 18 18 18 18 18 18 18 18 18 18 18
23 22 22 22 22 21 21 21 21 21 20 20 20 20 20 20 20 19 19 19 19 19 19 20 20 20 20 20 20 20 19 18 18 18 18 18 18 18 18 19 19 18 18
23 22 22 22 21 21 21 21 21 21 20 20 20 20 20 20 20 20 19 19 19 19 19 19 19 20 20 20 20 20 19 19 18 18 18 18 18 18 18 19 19 19 18
22 22 22 22 21 21 21 21 21 20 20 20 20 20 20 20 20 20 19 19 19 19 19 19 19 19 20 20 20 20 20 19 19 18 18 18 18 18 18 18 19 19 18
22 22 22 21 21 21 21 20 20 20 20 20 20 20 20 19 19 19 19 19 19 19 19 19 19 19 19 19 20 20 20 19 19 19 18 18 18 18 18 18 18 19 19
21 21 21 21 21 20 20 19 19 19 19 19 19 19 19 19 19 19 19 18 18 18 18 18 18 19 19 19 19 19 19 20 19 19 19 18 18 18 18 18 18 18 19
21 21 20 20 20 20 20 19 19 19 19 19 19 19 19 18 18 18 18 18 18 18 18 18 18 18 18 18 18 19 19 19 19 19 19 19 18 18 18 18 18 18 18
20 20 19 19 19 19 19 19 19 19 19 18 18 18 18 18 18 18 18 18 17 17 18 18 18 18 17 17 18 18 18 18 19 19 19 19 18 18 18 18 18 18 18
20 19 19 19 19 19 19 18 18 18 18 18 18 18 18 18 18 18 18 18 17 17 17 17 17 17 17 17 17 17 18 18 18 19 19 19 18 18 18 18 17 18 18
20 19 19 19 19 19 18 18 18 18 18 18 18 18 18 17 17 17 17 17 17 17 17 17 17 17 17 17 17 17 17 17 18 18 18 18 18 18 18 18 17 17 18
19 19 19 18 18 18 18 18 18 17 17 17 17 17 17 17 17 17 17 17 17 17 17 17 17 17 17 16 16 17 17 17 17 17 18 18 18 18 18 18 17 17 17
19 18 18 18 18 18 18 18 17 17 17 17 17 17 17 17 17 17 16 16 16 16 16 16 16 16 16 16 16 16 16 16 16 17 17 17 17 17 17 17 17 17 17
18 18 18 18 18 18 17 17 17 17 17 16 16 16 16 16 16 16 16 16 16 16 16 16 15 15 16 16 16 16 16 16 16 16 16 17 17 17 17 17 17 17 17
18 18 18 18 17 17 17 17 17 16 16 16 16 15 15 15 15 15 15 15 15 15 15 15 15 15 15 15 15 15 16 16 16 16 16 16 17 17 17 17 17 17 17
18 18 18 18 17 17 17 17 16 16 16 15 15 15 15 14 14 14 14 14 14 14 14 14 14 14 14 14 15 15 15 15 16 16 16 16 16 17 17 17 17 17 17
18 18 17 17 17 17 16 16 16 15 15 15 14 14 14 14 14 14 14 14 14 14 14 14 14 14 14 14 14 14 14 15 16 16 16 16 16 16 16 17 17 17 17
18 18 17 17 17 16 16 15 15 15 15 14 14 14 13 13 13 13 13 13 13 13 13 13 13 13 13 13 13 13 14 14 15 16 16 16 17 17 17 17 17 17 17
18 18 17 17 16 16 15 15 15 14 14 13 13 13 13 13 13 13 13 13 13 13 13 13 13 13 13 13 13 13 13 13 14 15 16 16 16 16 17 17 17 17 17
18 18 17 17 16 15 15 14 14 13 13 12 12 12 12 12 12 12 12 12 12 12 12 12 12 12 12 13 13 13 13 13 13 14 15 16 16 17 17 17 17 17 17
18 17 17 16 15 15 14 14 13 13 12 12 11 11 11 11 11 11 12 12 12 12 11 12 12 12 12 12 12 12 13 13 13 13 14 15 15 16 16 17 17 17 17
Wind_Speed
10 13 19 19 20 21 20 19 19 18 18 18 18 18 19 19 19 18 18 17 16 15 14 14 13 13 13 14 14 15 16 16 17 18 17 17 16 16 17 18 18 17 20
15 17 20 19 20 20 20 20 19 18 18 17 17 17 17 17 17 16 16 15 15 14 14 13 13 13 13 13 13 14 14 15 16 17 17 16 15 15 17 17 17 16 19
18 17 19 19 19 20 20 20 18 18 17 17 16 16 16 15 15 14 14 14 14 14 13 13 12 12 12 12 12 12 13 13 14 15 15 13 13 15 17 18 18 18 18
17 16 18 20 19 19 20 19 18 17 17 16 16 15 15 14 14 13 13 13 12 13 13 12 12 11 11 11 10 10 11 11 12 13 11 11 13 17 18 18 18 18 18
12 15 18 20 19 19 19 18 18 17 16 16 15 15 14 13 13 12 12 11 11 11 12 12 11 11 10 10 9 9 9 9 9 9 9 10 13 17 18 18 17 17 17
11 14 18 19 19 18 18 18 17 17 16 15 15 14 14 13 13 12 12 11 11 11 12 12 11 11 10 10 9 8 8 7 6 5 9 13 14 17 18 18 17 17 17
12 12 16 19 18 18 17 17 16 15 15 15 14 14 13 13 12 12 11 11 11 11 12 12 12 11 11 10 9 9 8 7 6 5 10 14 16 19 18 18 17 17 17
14 11 15 18 17 17 16 16 15 14 14 13 13 13 12 12 12 11 12 12 12 12 12 12 12 12 12 11 10 10 9 8 6 5 10 14 18 21 19 19 18 17 17
13 11 11 14 15 16 15 15 14 13 12 12 12 12 11 11 11 11 11 12 12 12 12 13 13 13 13 13 12 12 11 10 7 4 7 13 19 22 21 20 19 18 18
10 9 8 10 12 12 13 14 14 13 13 12 12 11 11 11 12 12 12 13 13 14 14 15 15 15 15 15 14 14 13 12 10 8 7 12 20 23 22 22 21 20 19
10 8 7 7 9 11 11 12 13 13 13 12 12 12 12 11 11 11 13 15 16 16 17 17 18 18 17 17 17 16 14 12 11 9 10 13 20 23 24 24 23 22 21
9 8 8 8 7 8 9 9 8 9 10 11 10 11 10 11 11 12 14 17 18 19 19 20 20 19 18 14 16 17 13 13 12 11 12 16 21 24 25 26 25 24 23
8 8 7 6 6 6 4 6 5 6 7 9 10 10 10 9 9 10 9 11 14 17 16 17 18 16 15 13 12 13 14 13 13 13 14 17 21 25 27 27 27 26 25
9 8 7 6 5 4 5 4 4 3 3 4 7 8 7 4 4 5 5 7 8 9 9 11 9 13 14 15 14 13 14 14 14 14 16 19 21 25 28 28 28 28 27
9 8 7 6 5 4 3 2 2 1 2 2 2 4 5 3 3 3 3 4 5 6 6 5 7 7 8 11 14 14 12 15 17 17 16 20 22 24 28 30 29 28 27
8 7 6 7 5 5 4 3 2 2 3 3 3 2 2 2 1 1 2 2 3 4 5 5 6 7 8 8 12 11 12 14 16 17 17 18 22 25 27 29 29 28 27
7 7 7 7 6 6 5 4 3 3 4 3 3 4 4 3 1 1 2 3 3 5 5 4 5 5 7 8 11 12 10 11 12 15 17 16 18 24 27 29 29 28 28
7 7 7 7 7 7 5 4 3 3 3 2 2 2 3 3 3 2 2 3 4 4 3 4 4 4 5 6 7 8 9 9 10 12 14 15 16 17 22 28 29 29 29
6 6 7 7 7 6 6 4 4 4 3 1 1 1 1 1 2 1 1 2 4 3 3 4 3 3 5 6 6 7 8 8 9 11 12 13 16 17 17 22 28 30 30
6 6 6 6 6 5 4 4 4 5 4 3 2 1 0 1 1 1 1 2 3 3 3 3 4 4 4 5 7 7 6 7 7 9 11 10 13 17 19 19 21 25 31
5 5 5 4 3 3 3 3 3 3 3 3 3 2 1 2 2 1 1 2 2 2 3 4 3 4 4 3 3 4 4 6 8 8 9 9 11 13 16 18 18 18 19
6 6 6 5 4 3 2 2 1 1 2 1 2 3 5 5 5 3 3 3 3 2 3 4 3 3 3 2 2 2 3 3 5 9 8 10 11 9 11 15 16 18 17
7 7 7 6 5 4 3 2 2 2 3 3 4 4 4 7 7 6 5 5 4 3 3 4 2 2 3 3 2 2 2 3 3 3 7 9 9 9 11 10 13 17 19
8 7 6 6 5 4 3 2 2 1 1 3 3 4 6 7 7 8 6 5 5 4 4 4 2 2 2 3 3 3 3 2 3 3 3 5 8 10 10 11 12 12 17
6 5 5 5 4 3 3 3 2 2 3 3 3 5 6 6 6 6 5 4 4 4 5 4 3 3 2 3 3 3 3 3 4 4 4 4 4 6 8 9 9 9 13
3 4 5 5 3 3 3 3 3 4 4 4 5 5 5 4 5 6 5 4 4 4 5 5 5 5 4 4 3 3 3 3 2 2 4 3 4 4 5 6 8 8 9
Wind_Direction
149 156 149 142 137 133 130 128 125 121 119 117 115 114 114 115 116 118 120 122 124 125 124 122 118 114 113 113 115 116 117 118 119 119 117 114 114 118 120 118 116 116 118
149 153 148 143 140 137 135 134 131 128 125 123 122 121 121 121 122 123 125 126 127 128 128 127 123 121 120 120 122 123 123 124 125 123 119 115 116 123 124 121 120 124 122
142 147 146 143 140 138 138 137 135 134 132 130 129 129 129 130 130 132 133 133 134 134 134 133 131 129 128 128 129 130 130 129 128 125 119 113 115 124 128 126 125 126 126
138 140 143 141 139 138 139 140 140 140 139 138 138 138 139 140 141 142 143 143 143 143 143 142 140 138 138 139 140 140 139 140 138 133 130 129 123 126 130 131 130 130 130
131 134 143 141 139 139 139 141 144 145 145 146 146 148 149 150 152 153 154 154 155 154 153 153 151 149 150 152 154 155 154 154 155 152 156 151 137 137 137 137 137 136 136
127 133 142 141 140 140 141 144 148 151 151 152 153 156 158 160 161 163 166 168 168 167 165 164 163 163 164 167 171 176 177 176 170 156 157 156 151 148 146 146 145 144 143
128 133 142 142 142 142 144 147 151 154 157 159 161 164 167 169 171 175 178 179 180 180 178 176 176 176 178 182 188 195 200 200 191 171 164 166 164 158 155 154 153 152 151
137 136 143 145 145 146 147 150 152 156 160 165 168 171 175 178 182 186 188 191 192 190 189 189 189 189 190 194 200 209 217 219 210 187 180 179 175 165 163 162 161 160 159
138 139 142 148 150 151 152 154 157 161 166 171 175 179 184 189 194 198 199 201 201 201 202 201 201 201 202 204 209 216 225 230 231 209 189 185 185 173 170 169 169 168 167
137 144 144 148 150 154 158 162 165 170 176 181 185 189 195 201 206 209 210 212 213 212 211 210 210 210 210 212 216 220 227 235 236 228 216 199 194 183 178 177 176 176 176
141 150 152 154 156 159 164 173 175 180 187 191 196 200 204 211 218 222 224 222 224 223 220 218 217 216 215 217 221 225 229 233 236 234 226 212 202 193 186 184 183 182 182
149 158 165 161 160 165 173 172 182 191 198 202 207 213 214 215 222 231 234 235 233 232 230 227 224 222 220 220 224 227 228 228 233 237 231 222 210 203 195 190 189 188 187
146 154 154 151 152 160 159 155 179 199 204 212 218 221 222 222 231 242 243 248 245 241 237 234 229 225 222 217 218 222 226 227 231 236 236 228 216 210 203 196 194 192 192
126 132 129 124 124 129 131 145 160 183 193 207 222 224 217 219 229 239 241 245 243 238 232 230 227 223 224 222 220 222 224 227 231 233 237 236 225 215 209 203 199 197 196
104 108 117 112 108 108 106 112 107 123 147 188 219 217 207 210 236 244 250 253 250 243 239 237 234 229 226 230 230 228 225 225 229 231 236 238 231 220 213 207 205 203 201
92 94 98 90 87 84 79 77 73 80 91 89 77 77 132 165 235 271 283 280 273 259 249 243 243 242 238 232 235 234 231 228 229 229 232 238 233 222 213 209 209 208 207
87 87 92 90 72 71 61 54 63 75 83 84 85 79 81 82 52 358 323 309 296 296 282 266 254 248 247 241 238 238 237 230 226 227 230 231 233 227 216 212 212 211 211
87 79 70 80 67 61 55 43 34 45 64 78 88 85 73 59 49 30 350 319 312 313 298 283 269 259 253 245 242 243 242 234 227 228 231 230 226 223 220 216 215 214 215
93 89 77 67 64 60 51 43 37 37 36 23 47 77 71 53 50 45 345 314 323 318 306 298 292 267 264 258 249 244 239 236 230 233 231 230 227 222 217 219 219 220 220
109 102 95 81 73 66 51 40 28 22 8 357 338 288 212 355 8 16 308 322 330 321 309 302 290 278 266 265 267 262 244 235 230 229 231 231 231 226 221 218 221 225 224
126 122 121 110 102 88 65 50 32 357 343 346 330 325 300 286 291 272 275 293 307 295 288 291 288 284 277 266 267 275 262 240 234 232 228 228 228 226 222 218 217 220 224
168 165 163 160 150 134 126 130 152 226 295 321 333 333 326 315 301 288 258 261 264 272 296 300 295 289 283 277 253 269 282 276 241 230 222 224 226 222 223 222 217 216 217
192 190 183 180 167 154 139 103 41 25 0 352 342 328 313 309 304 295 274 258 250 234 253 270 277 278 285 281 249 243 246 265 291 259 228 225 219 215 220 219 215 215 214
203 193 183 176 166 162 145 131 142 172 262 266 275 288 304 309 306 300 286 266 255 242 241 257 251 249 271 287 283 255 244 247 263 297 283 238 224 219 216 219 218 213 212
194 177 168 154 156 169 168 173 181 220 240 265 287 304 309 310 313 314 302 284 269 257 252 253 265 260 242 256 268 268 263 256 237 244 277 285 258 231 217 213 211 209 208
149 143 141 146 172 194 196 201 204 231 254 280 299 307 307 309 313 318 310 299 287 276 266 258 256 260 253 255 263 259 253 250 251 247 255 275 275 262 232 217 210 207 204
Height
1519 1522 1525 1528 1530 1531 1533 1535 1536 1538 1539 1540 1542 1543 1544 1545 1546 1548 1549 1550 1551 1551 1552 1553 1554 1554 1554 1555 1555 1555 1556 1556 1556 1556 1557 1557 1558 1558 1559 1559 1560 1561 1562
1518 1522 1525 1528 1530 1532 1534 1535 1537 1538 1540 1541 1542 1544 1545 1546 1547 1548 1549 1550 1551 1552 1553 1554 1554 1555 1555 1556 1556 1557 1557 1557 1558 1558 1559 1559 1560 1560 1561 1561 1562 1563 1564
1518 1522 1525 1528 1531 1533 1535 1536 1538 1539 1540 1542 1543 1544 1545 1546 1548 1549 1550 1551 1552 1553 1554 1554 1555 1556 1556 1557 1557 1558 1558 1559 1559 1560 1561 1561 1562 1562 1562 1563 1564 1565 1566
1520 1523 1526 1529 1531 1534 1535 1537 1538 1540 1541 1542 1543 1545 1546 1547 1548 1549 1550 1551 1552 1553 1554 1555 1556 1556 1557 1558 1558 1559 1560 1560 1560 1561 1562 1563 1563 1563 1564 1564 1565 1566 1568
1521 1524 1527 1530 1532 1534 1536 1538 1539 1540 1541 1543 1544 1545 1546 1547 1548 1549 1550 1551 1552 1553 1554 1555 1556 1557 1558 1558 1559 1560 1560 1561 1561 1562 1562 1563 1564 1564 1565 1565 1566 1567 1569
1523 1526 1528 1531 1533 1535 1537 1538 1539 1540 1542 1543 1544 1545 1546 1547 1548 1549 1550 1551 1552 1553 1554 1555 1556 1557 1558 1559 1559 1560 1561 1561 1561 1562 1563 1564 1565 1565 1566 1566 1567 1568 1570
1524 1527 1529 1532 1534 1535 1537 1538 1540 1541 1542 1543 1544 1545 1546 1546 1547 1548 1549 1550 1551 1552 1553 1554 1555 1556 1557 1559 1559 1560 1561 1561 1562 1562 1563 1564 1565 1566 1566 1567 1568 1569 1570
1526 1529 1531 1533 1535 1536 1537 1539 1540 1541 1542 1542 1543 1544 1545 1546 1547 1548 1549 1549 1551 1552 1553 1554 1555 1556 1557 1558 1559 1560 1561 1561 1562 1562 1563 1564 1565 1566 1567 1567 1568 1569 1570
1529 1530 1532 1533 1535 1536 1538 1539 1540 1541 1542 1542 1543 1544 1544 1545 1546 1547 1548 1548 1549 1551 1551 1552 1553 1554 1555 1556 1558 1559 1560 1560 1561 1561 1562 1563 1564 1566 1566 1567 1568 1569 1570
1530 1531 1533 1534 1535 1537 1538 1539 1540 1541 1542 1542 1543 1543 1544 1544 1545 1546 1546 1547 1548 1549 1550 1550 1551 1552 1553 1554 1556 1557 1558 1559 1559 1560 1560 1561 1563 1564 1565 1566 1567 1568 1569
1531 1532 1534 1535 1536 1537 1538 1539 1540 1541 1541 1542 1542 1542 1543 1543 1544 1544 1545 1545 1545 1546 1547 1547 1548 1549 1550 1552 1553 1554 1555 1556 1557 1558 1558 1559 1560 1562 1564 1565 1566 1567 1568
1531 1533 1534 1535 1536 1537 1538 1539 1540 1540 1541 1541 1541 1542 1542 1542 1542 1542 1542 1543 1543 1543 1543 1544 1545 1546 1547 1548 1549 1550 1551 1553 1554 1555 1556 1557 1558 1559 1561 1562 1564 1565 1567
1532 1533 1534 1535 1536 1536 1537 1538 1539 1539 1540 1540 1540 1540 1540 1540 1540 1540 1540 1540 1539 1540 1540 1540 1541 1541 1542 1543 1544 1546 1547 1549 1550 1551 1552 1554 1555 1556 1558 1559 1561 1563 1564
1531 1532 1534 1535 1535 1535 1536 1537 1537 1538 1538 1538 1538 1538 1538 1537 1537 1538 1537 1537 1536 1535 1535 1536 1536 1536 1537 1539 1539 1540 1541 1543 1545 1546 1548 1549 1551 1552 1554 1556 1557 1559 1561
1530 1532 1533 1534 1534 1535 1535 1535 1535 1536 1536 1536 1536 1535 1535 1535 1534 1533 1533 1532 1532 1531 1531 1531 1531 1532 1532 1533 1534 1534 1535 1537 1539 1541 1543 1545 1546 1547 1549 1551 1553 1555 1557
1530 1531 1532 1533 1534 1534 1534 1534 1534 1534 1534 1534 1533 1533 1532 1532 1531 1530 1529 1528 1527 1526 1526 1526 1525 1526 1526 1526 1527 1528 1529 1530 1532 1534 1537 1539 1540 1542 1543 1546 1548 1551 1553
1530 1531 1532 1532 1532 1532 1533 1533 1533 1533 1533 1532 1531 1531 1530 1529 1528 1526 1525 1524 1522 1521 1521 1520 1519 1519 1519 1519 1519 1520 1521 1522 1524 1527 1530 1532 1534 1536 1538 1540 1543 1545 1548
1531 1531 1531 1531 1531 1531 1531 1531 1531 1531 1531 1530 1529 1528 1527 1526 1524 1523 1521 1520 1518 1517 1515 1514 1514 1513 1512 1512 1512 1512 1513 1514 1516 1518 1522 1524 1527 1529 1531 1534 1536 1539 1542
1531 1531 1531 1531 1531 1531 1531 1530 1530 1530 1529 1528 1526 1525 1524 1523 1521 1520 1518 1516 1514 1512 1511 1510 1508 1507 1506 1505 1505 1504 1505 1506 1508 1510 1513 1516 1519 1522 1524 1527 1530 1533 1536
1532 1531 1531 1531 1531 1531 1531 1530 1529 1528 1527 1525 1524 1523 1521 1520 1518 1517 1515 1513 1511 1509 1507 1505 1504 1502 1501 1499 1498 1497 1497 1498 1500 1502 1505 1508 1511 1514 1517 1520 1523 1526 1529
1532 1532 1531 1531 1530 1530 1529 1528 1527 1526 1524 1523 1521 1520 1518 1517 1515 1513 1511 1510 1508 1506 1504 1502 1500 1498 1497 1495 1494 1492 1492 1492 1493 1494 1498 1500 1503 1506 1509 1512 1515 1518 1522
1531 1531 1530 1529 1529 1528 1527 1525 1524 1523 1521 1520 1518 1517 1515 1513 1511 1510 1508 1506 1504 1503 1501 1499 1496 1494 1493 1492 1491 1489 1487 1488 1487 1488 1491 1493 1496 1499 1502 1505 1508 1511 1514
1530 1529 1528 1527 1526 1525 1524 1523 1522 1520 1518 1516 1514 1512 1511 1509 1507 1505 1504 1502 1501 1499 1497 1496 1494 1492 1490 1489 1488 1487 1486 1484 1483 1483 1485 1486 1489 1491 1494 1497 1501 1504 1507
1527 1527 1526 1525 1524 1523 1522 1520 1518 1516 1513 1511 1509 1507 1505 1504 1502 1500 1499 1498 1497 1495 1494 1492 1491 1489 1487 1485 1485 1484 1484 1483 1483 1480 1480 1481 1483 1485 1488 1491 1494 1497 1500
1526 1525 1524 1523 1522 1521 1519 1517 1515 1512 1510 1507 1505 1502 1500 1499 1497 1496 1494 1493 1492 1491 1490 1489 1487 1486 1484 1483 1482 1481 1480 1480 1480 1479 1478 1478 1479 1480 1482 1485 1488 1491 1494
1524 1523 1522 1521 1520 1518 1516 1514 1511 1509 1506 1503 1501 1498 1496 1494 1493 1492 1490 1488 1487 1486 1486 1485 1483 1482 1481 1479 1478 1478 1477 1477 1476 1476 1475 1474 1474 1475 1477 1479 1482 1485 1488